{"data":{"norad_id":65212,"epoch":"2026-05-25T01:38:49.807392Z","epoch_age_seconds":66439,"freshness":"FRESH","line1":"1 65212U 25176Q   26145.06863203  .00016810  00000+0  50750-3 0  9998","line2":"2 65212  53.1561 157.3047 0001368  91.6534 268.4625 15.34402698 44825","mean_motion":15.34402698,"eccentricity":0.0001368,"inclination_deg":53.1561,"raan_deg":157.3047,"arg_perigee_deg":91.6534,"mean_anomaly_deg":268.4625,"bstar":0.0005075,"rev_number":4482,"period_min":93.847593065168,"perigee_km":461.75939534642,"apogee_km":463.63104704214,"semimajor_km":6840.8322211943,"source":"CELESTRAK","updated_at":"2026-05-25T13:38:20.720576Z"}}